Regional Weather Roundup
Issued by NWS San Diego, CA

Home | Current Version | Previous Version | Text Only | Print | Product List | Glossary On
Versions: 1 2 3 4 5 6 7 8 9 10 11 12 13 14 15 16 17 18 19 20 21 22 23 24 25 26 27 28 29 30 31 32 33 34 35 36 37 38 39 40 41 42 43 44 45 46 47 48 49 50
000
ASUS46 KSGX 220011
RWRSGX

SAN DIEGO HOURLY WEATHER ROUNDUP
NATIONAL WEATHER SERVICE SAN DIEGO CA
400 PM PST TUE FEB 21 2017

NOTE: "FAIR" INDICATES FEW OR NO CLOUDS BELOW 12,000 FEET WITH NO
SIGNIFICANT WEATHER AND/OR OBSTRUCTIONS TO VISIBILITY.

CAZ042-043-060-061-PZZ750-775-220100-

GREATER SAN DIEGO AREA

CITY           SKY/WX    TMP DP  RH WIND       PRES   REMARKS
SAN DIEGO AP   PTSUNNY   67  55  65 NW12      30.22F
NATIONAL CITY    N/A     71  59  66 W3        30.21F
CHULA VISTA      N/A     71  57  60 W3        30.13F
IMPERIAL BEACH PTSUNNY   65  56  72 W9        30.22F
BROWN FIELD    SUNNY     67  56  67 W7        30.21S
MIRAMAR MCAS   MOSUNNY   69  57  65 NW10      30.21F
MONTGOMERY FLD MOSUNNY   67  53  61 NW10      30.21F

$$

NORTH SAN DIEGO COUNTY

CITY           SKY/WX    TMP DP  RH WIND       PRES   REMARKS
CAMP PENDLETON PTSUNNY   66  59  78 S6        30.20F
OCEANSIDE AP   PTSUNNY   63  58  83 W9        30.21S
OCEANSIDE HBR    N/A     60  57  88 N12       30.24F
VISTA            N/A     66  58  76 W1        30.20S
CARLSBAD       PTSUNNY   63  56  78 W7        30.21F
DEL MAR          N/A     63  59  87 CALM      30.24F
LA JOLLA SCRIP   N/A     61  59  93 W3        30.23S
FALLBROOK        N/A     68  61  76 CALM      30.20S
ESCONDIDO        N/A     68  53  57 NW5       30.23S
SAN MARCOS       N/A     66  57  71 NW6       30.23S
POWAY            N/A     72  50  45 N1        30.23F

$$

EAST SAN DIEGO COUNTY

CITY           SKY/WX    TMP DP  RH WIND       PRES   REMARKS
RAMONA         PTSUNNY   67  55  65 NW10      30.22F
SANTEE LAKES     N/A     72  55  54 CALM      30.19F
LA MESA          N/A     69  52  55 NW5       30.15F
JAMUL            N/A     67  52  57 CALM      30.22S
DESCANSO N       N/A     63  40  42 W2        30.20S
CAMPO            N/A     67  37  33 W10       30.20S

$$

ORANGE COUNTY AND THE LOS ANGELES BASIN

CITY           SKY/WX    TMP DP  RH WIND       PRES   REMARKS
JOHN WAYNE AP  CLOUDY    66  56  70 W7        30.23S
LAGUNA BEACH     N/A     64  57  77 N1        30.18S
LAKE FOREST FR   N/A     67  46  45 NW3       30.12F
HUNTINGTON BCH   N/A     64  58  81 W6        30.24F
LOS ALAMITOS   PTSUNNY   66  56  71 NW9       30.22F
FULLERTON      CLOUDY    68  54  60 W6        30.22S
LONG BEACH     CLOUDY    65  51  60 NW9       30.23F
L.A. AP        CLOUDY    61  56  83 W9        30.24F
L.A. DOWNTOWN  CLOUDY    66  52  60 VRB5      30.23F

$$

THE INLAND EMPIRE

CITY           SKY/WX    TMP DP  RH WIND       PRES   REMARKS
CORONA         CLOUDY    68  50  52 NW6       30.23S
CHINO          CLOUDY    68  49  50 W7        30.24S
ONTARIO        CLOUDY    65  39  38 W7        30.23S
SAN BERNARDINO CLOUDY    68  39  34 W3        30.24S
RIVERSIDE AP   CLOUDY    67  48  50 W6        30.22S
MORENO VALLEY    N/A     67  53  61 W2        28.34F
MARCH ARB      PTSUNNY   64  51  62 NW3       30.22F
HORSETHIEF CYN   N/A     66  50  56 CALM      30.22
PERRIS           N/A     65  55  68 NW2       30.27S
HEMET EAST       N/A     63  47  56 CALM      30.29S
FRENCH VALLEY  FAIR      66  52  59 N6        30.22S
TEMECULA         N/A     69  46  42 SW3       30.26F

$$

SAN BERNARDINO AND RIVERSIDE COUNTY MOUNTAINS

CITY           SKY/WX    TMP DP  RH WIND       PRES   REMARKS
BIG BEAR AP    PTSUNNY   45  32  61 W9        30.31S
ANGELUS OAKS     N/A     48  35  60 CALM      30.18S
PINE COVE        N/A     48  29  48 N2        30.22F

$$

SOUTHERN DESERT INCLUDING THE COACHELLA VALLEY

CITY           SKY/WX    TMP DP  RH WIND       PRES   REMARKS
PALM SPRINGS   PTSUNNY   74  51  44 S6        30.16F
PALM DESERT      N/A     76  52  43 CALM        N/A
THERMAL        MOSUNNY   74  54  49 SW3       30.12F
BLYTHE         SUNNY     75  54  47 NE6       30.14F
IMPERIAL AP    SUNNY     78  53  41 NW5       30.13S
EL CENTRO NAS  PTSUNNY   78  46  32 CALM      30.15F
YUMA AZ        SUNNY     79  47  32 CALM      30.12
MEXICALI       PTSUNNY   77  46  33 SE3       30.14F

$$

UPPER DESERT

CITY           SKY/WX    TMP DP  RH WIND       PRES   REMARKS
VICTORVILLE AP PTSUNNY   61  36  39 S16       30.21F
HESPERIA         N/A     58  34  40 W17       30.31F
PALMDALE       CLOUDY    58  49  72 W10       30.22S
LANCASTER      PTSUNNY   57  49  74 SW21      30.20F
EDWARDS AFB    PTSUNNY   61  48  63 SW21      30.18R
DAGGETT        CLOUDY    68  37  32 SW15      30.17F
29 PALMS N     PTSUNNY   69  43  38 SE8       30.23F
NEEDLES        PTSUNNY   72  53  51 CALM      30.16F

$$

REGIONAL REPORTS

CITY           SKY/WX    TMP DP  RH WIND       PRES   REMARKS
SANTA BARBARA  PTSUNNY   59  59 100 SE6       30.24F
SANDBERG       FOG       48  48 100 S12       30.25F VSB<1/4
LAS VEGAS NV   PTSUNNY   69  34  27 S10G22    30.08F
PHOENIX AZ     MOSUNNY   75  48  38 W9        30.14F
TIJUANA        MOSUNNY   66  52  59 W8        30.23F

$$

OFFSHORE ISLANDS

CITY           SKY/WX    TMP DP  RH WIND       PRES   REMARKS
CATALINA ARPT  CLOUDY    56  55  97 W8        30.25F
SAN CLEMENTE I CLOUDY    60  57  89 W7        30.26F
SAN NICOLAS IS CLOUDY    63  61  93 W7        30.25S FOG

$$

MARINE AND OFFSHORE BUOY REPORTS

STATION/POSITION SKY/WX   TEMP    WIND        PRES    VSBY  SWELL
                          AIR SEA DIR/SP/G                  HT/PER/DIR
                          (F)     (DEG/KT/KT) (MB)    (MI)  (FT/S/D)
TANNER BANKS               61 61  280/  8/ 10 1024.4         10/310/13
S CLEMENTE BASIN           60 60  310/  8/ 12 1023.9          7/280/14
SAN NICOLAS IS.               58                N/A           7/290/13
SO. S. ROSA ISLA           57 57  290/  4/  6 1024.3F        10/280/11
W. S. BARBARA CH           57 57  350/  6/  8 1024.6         10/280/12
M. S. BARBARA CH                   90/  6/ 10 1024.8F
S. MONICA BASIN            59 59  200/  2/  4 1024.0F         5/260/13
S PEDRO CHANNEL               60                N/A           5/270/13
CMP PENDLETON NS              60                N/A           2/240/13
OCEANSIDE OFFSHR              60                N/A           2/260/14
TORREY PINES OTR              60                N/A           3/250/13
POINT LOMA SOUTH              60                N/A           3/250/13

$$




USA.gov is the U.S. government's official web portal to all federal, state and local government web resources and services.